Miscellaneous Local Product
Issued by NWS North Platte, NE

Home | Current Version | Previous Version | Graphics & Text | Print | Product List | Glossary On
Versions: 1 2 3 4 5 6 7 8 9 10 11 12 13 14 15 16 17 18 19 20 21 22 23 24 25 26 27 28 29 30 31 32 33 34 35 36 37 38 39 40 41 42 43 44 45 46 47 48 49 50
000
AXUS43 KLBF 270010
MISLBF


WESTERN AND NORTH CENTRAL NEBRASKA HOURLY WEATHER ROUNDUP
NATIONAL WEATHER SERVICE NORTH PLATTE NE
700 PM CDT MON SEP 26 2016

NOTE: "FAIR" INDICATES FEW OR NO CLOUDS BELOW 12,000 FEET WITH NO
SIGNIFICANT WEATHER AND/OR OBSTRUCTIONS TO VISIBILITY.

NOTE: STATIONS NOT REPORTING VARIABLES SUCH AS SKY/WEATHER OR
PRESSURE ARE PROVIDED BY RAWS AND APRS NETWORKS AND ARE NOT UNDER
NATIONAL WEATHER SERVICE QUALITY CONTROL.

...OBSERVATIONS IN AND NEAR THE EASTERN PANHANDLE OF NEBRASKA...

CITY           SKY/WX    TMP DP  RH WIND       PRES   REMARKS
PINE RIDGE     CLEAR     71  41  33 N10       30.19S
CHADRON        CLEAR     72  41  32 NW10G17   30.20F
ALLIANCE       CLEAR     70  41  34 NW12      30.22F
SIDNEY         LGT RAIN  71  39  31 N10       30.27S
$$

...OBSERVATIONS IN NORTHERN NEBRASKA AND FAR SOUTHERN SOUTH DAKOTA...

CITY           SKY/WX    TMP DP  RH WIND       PRES   REMARKS
WINNER         FAIR      71  40  32 NW6       30.10F
VALENTINE      CLEAR     72  37  28 NW12      30.14F
THEDFORD       CLEAR     72  40  31 N8        30.17S
AINSWORTH      CLEAR     69  41  35 NW7       30.15S
O`NEILL        CLEAR     68  37  31 N8        30.13S
ORD            CLEAR     69  40  34 N6        30.12
BROKEN BOW     CLEAR     72  39  30 N7        30.14F
VALENTINE NWR    N/A     72  39  30 NW9G20      N/A
BUTTE            N/A     67  41  39 NW3         N/A
HALSEY           N/A     74  38  26 NW6G17      N/A
EWING            N/A     67  44  43 NW3         N/A
$$

...OBSERVATIONS IN SOUTHWEST NEBRASKA AND FAR NORTHEAST COLORADO...

CITY           SKY/WX    TMP DP  RH WIND       PRES   REMARKS
WRAY           FAIR      75  36  23 N10       30.23F
HOLYOKE        FAIR      73  37  27 N10       30.24S
IMPERIAL       CLEAR     75  37  25 N10       30.20F
OGALLALA       CLEAR     75  39  26 N8        30.20S
NORTH PLATTE   CLEAR     72  42  34 NW8       30.16F
MCCOOK         CLEAR     74  43  32 NW6       30.16F
LEXINGTON      CLEAR     72  41  32 N5        30.15S
STAPLETON        N/A     72  42  34 CALM        N/A
GOTHENBURG       N/A     76  37  24 NW7         N/A
CALLAWAY         N/A     75  41  30 N8          N/A
$$

...OBSERVATIONS IN CENTRAL LINCOLN COUNTY AREA...

CITY           SKY/WX    TMP DP  RH WIND       PRES   REMARKS
N.P. AIRPORT   CLEAR     72  42  34 NW8       30.16F
N.P. DOWNTOWN    N/A     74  44  34 CALM        N/A
N.P. SOUTHEAST   N/A     75  43  31 CALM        N/A
N.P. HILLCREST   N/A     74  40  29 N8          N/A
$$

...SOME OBSERVATIONS FROM AROUND THE REGION...

CITY           SKY/WX    TMP DP  RH WIND       PRES   REMARKS
DENVER         PTCLDY    73  29  19 E6        30.30F
LARAMIE        CLEAR     65  35  33 N16       30.39R
CHEYENNE       CLEAR     70  34  26 N14       30.33R
SCOTTSBLUFF    CLEAR     73  42  32 N10       30.24S
RAPID CITY     CLEAR     68  40  35 N18       30.19F
BISMARCK       CLEAR     65  35  33 NW13G23   30.09F
PIERRE         CLEAR     70  37  29 N13       30.08S
SIOUX FALLS    CLEAR     66  37  34 NW7       30.03F
OMAHA          CLEAR     72  42  34 W5        30.05F
GRAND ISLAND   CLEAR     71  43  36 N9        30.12S
KANSAS CITY    CLEAR     64  47  53 SW7       30.12F
WICHITA        PTCLDY    71  43  36 CALM      30.17F
OKLAHOMA CITY  MOCLDY    71  36  27 NE9       30.17F
DALLAS         CLOUDY    68  58  70 N5        30.11S
AMARILLO       PTCLDY    68  37  32 E6        30.29S
DODGE CITY     CLEAR     74  34  23 S7        30.20F
HAYS           CLEAR     77  34  20 CALM      30.15F
GOODLAND       CLEAR     74  38  27 N8        30.22S
$$




USA.gov is the U.S. government's official web portal to all federal, state and local government web resources and services.